Date String (YYYY-MM-DD hh:mm:ss) UTC,Instrument flags,absolute air pressure of the measurement (hPa),sample flow rate (lpm),inlet stack bypass flow (lpm),air temperature of the measurement (°C),ambient temperature measured by the external sensor (°C),aerosol sample conditioner tube jacket temperature (°C),OPC LED temperature (°C),internal box temperature (°C),relative humidity of the measurement (%),span deviation,mass concentration of particles derived from Lorenz-Mie calculation of OPC scattering (μg/m³),mass concentration of particles derived from Lorenz-Mie calculation of OPC scattering (μg/m³),mass concentration of particles derived from Lorenz-Mie calculation of OPC scattering (μg/m³)
DateTimeUTC,F1_M11,P_M11,Q1_M11,Q2_M11,T1_M11,T2_M11,T3_M11,T4_M11,T5_M11,U1_M11,ZSPAN_M11,X0_M11,X2_M11,X1_M11
2024-03-27 14:00:00,SystemResetWarning,0826.2,5.00,000.00,018.6,018.0,000.0,027.2,020.3,13.7,0000.0,0003.54,0002.13,0001.62
2024-03-27 14:01:00,SystemResetWarning,0826.2,5.00,000.00,018.6,017.9,000.0,027.2,020.3,13.9,0000.0,0003.27,0001.95,0001.42
2024-03-27 14:02:00,SystemResetWarning,0826.2,5.00,000.00,018.6,017.9,000.0,027.2,020.3,13.9,0000.0,0003.08,0001.90,0001.38
2024-03-27 14:03:00,SystemResetWarning,0826.2,5.00,000.00,018.6,017.9,000.0,027.1,020.3,14.0,0000.0,0004.05,0001.94,0001.37
2024-03-27 14:04:00,SystemResetWarning,0826.2,5.00,000.00,018.6,017.9,000.0,027.1,020.3,14.1,0000.0,0004.80,0001.91,0001.37
2024-03-27 14:05:00,SystemResetWarning,0826.2,5.00,000.00,018.5,017.8,000.0,027.1,020.3,14.3,0000.0,0005.16,0001.91,0001.36
2024-03-27 14:06:00,SystemResetWarning,0826.2,5.00,000.00,018.5,017.8,000.0,027.1,020.3,14.8,0000.0,0006.10,0001.93,0001.38
2024-03-27 14:07:00,SystemResetWarning,0826.2,5.00,000.00,018.5,017.8,000.0,027.1,020.2,16.2,0000.0,0006.08,0002.02,0001.45
2024-03-27 14:08:00,SystemResetWarning,0826.2,5.01,000.00,018.5,017.8,000.0,027.1,020.2,17.1,0000.0,0006.74,0002.26,0001.65
2024-03-27 14:09:00,SystemResetWarning,0826.3,5.00,000.00,018.5,017.8,000.0,027.1,020.2,16.7,0000.0,0007.14,0002.45,0001.87
2024-03-27 14:10:00,SystemResetWarning,0826.3,5.00,000.00,018.5,017.8,000.0,027.1,020.2,16.6,0000.0,0007.33,0002.67,0002.09
2024-03-27 14:11:00,SystemResetWarning,0826.3,5.00,000.00,018.5,017.8,000.0,027.1,020.2,16.9,0000.0,0007.49,0002.93,0002.33
2024-03-27 14:12:00,SystemResetWarning,0826.4,5.00,000.00,018.5,017.8,000.0,027.1,020.2,16.1,0000.0,0007.63,0003.13,0002.53
2024-03-27 14:13:00,SystemResetWarning,0826.3,5.00,000.00,018.5,017.8,000.0,027.1,020.2,15.4,0000.0,0007.67,0003.19,0002.64
2024-03-27 14:14:00,SystemResetWarning,0826.3,5.00,000.00,018.5,017.8,000.0,027.1,020.2,14.9,0000.0,0006.95,0003.20,0002.69
2024-03-27 14:15:00,SystemResetWarning,0826.4,5.00,000.00,018.5,017.8,000.0,027.1,020.2,15.7,0000.0,0006.49,0003.29,0002.81
2024-03-27 14:16:00,SystemResetWarning,0826.4,5.00,000.00,018.5,017.8,000.0,027.0,020.2,16.7,0000.0,0006.63,0003.45,0003.04
2024-03-27 14:17:00,SystemResetWarning,0826.4,5.00,000.00,018.5,017.8,000.0,027.0,020.2,16.8,0000.0,0005.86,0003.55,0003.17
2024-03-27 14:18:00,SystemResetWarning,0826.4,5.00,000.00,018.5,017.9,000.0,027.0,020.2,16.7,0000.0,0005.94,0003.62,0003.25
2024-03-27 14:19:00,SystemResetWarning,0826.4,5.00,000.00,018.5,017.9,000.0,027.0,020.2,16.8,0000.0,0006.27,0003.62,0003.25
2024-03-27 14:20:00,SystemResetWarning,0826.5,4.99,000.00,018.4,017.9,000.0,027.0,020.2,17.3,0000.0,0006.05,0003.63,0003.24
2024-03-27 14:21:00,SystemResetWarning,0826.6,4.99,000.00,018.4,017.9,000.0,027.0,020.2,17.7,0000.0,0006.09,0003.64,0003.24
2024-03-27 14:22:00,SystemResetWarning,0826.6,5.01,000.00,018.4,017.9,000.0,027.0,020.2,18.2,0000.0,0006.03,0003.62,0003.23
2024-03-27 14:23:00,SystemResetWarning,0826.6,5.01,000.00,018.4,017.9,000.0,027.0,020.2,18.3,0000.0,0006.11,0003.61,0003.24
2024-03-27 14:24:00,SystemResetWarning,0826.6,4.99,000.00,018.4,017.9,000.0,027.0,020.2,17.8,0000.0,0007.00,0003.70,0003.30
2024-03-27 14:25:00,SystemResetWarning,0826.6,4.99,000.00,018.4,017.9,000.0,027.0,020.2,17.0,0000.0,0007.20,0003.78,0003.36
2024-03-27 14:26:00,SystemResetWarning,0826.6,5.01,000.00,018.4,017.9,000.0,027.0,020.2,16.6,0000.0,0007.14,0003.77,0003.39
2024-03-27 14:27:00,SystemResetWarning,0826.6,5.01,000.00,018.4,017.9,000.0,027.0,020.2,17.2,0000.0,0007.06,0003.74,0003.39
2024-03-27 14:28:00,SystemResetWarning,0826.6,5.01,000.00,018.4,017.9,000.0,027.0,020.2,16.4,0000.0,0006.89,0003.71,0003.38
2024-03-27 14:29:00,SystemResetWarning,0826.6,4.99,000.00,018.4,017.9,000.0,027.0,020.2,17.3,0000.0,0007.04,0003.74,0003.39
2024-03-27 14:30:00,SystemResetWarning,0826.7,5.00,000.00,018.4,017.9,000.0,027.0,020.2,17.5,0000.0,0006.71,0003.78,0003.42
2024-03-27 14:31:00,SystemResetWarning,0826.7,5.00,000.00,018.4,017.9,000.0,026.9,020.2,17.4,0000.0,0006.58,0003.81,0003.45
2024-03-27 14:32:00,SystemResetWarning,0826.7,5.00,000.00,018.4,017.9,000.0,026.9,020.1,17.4,0000.0,0006.59,0003.81,0003.45
2024-03-27 14:33:00,SystemResetWarning,0826.6,5.00,000.00,018.4,017.9,000.0,026.9,020.1,17.4,0000.0,0007.16,0003.79,0003.43
2024-03-27 14:34:00,SystemResetWarning,0826.6,5.00,000.00,018.4,017.9,000.0,026.9,020.1,17.5,0000.0,0007.74,0003.79,0003.43
2024-03-27 14:35:00,SystemResetWarning,0826.7,5.01,000.00,018.4,017.9,000.0,026.9,020.1,17.7,0000.0,0008.02,0003.74,0003.40
2024-03-27 14:36:00,SystemResetWarning,0826.8,5.00,000.00,018.4,017.9,000.0,026.9,020.2,17.6,0000.0,0008.26,0003.74,0003.39
2024-03-27 14:37:00,SystemResetWarning,0826.8,5.00,000.00,018.4,017.9,000.0,026.9,020.1,16.9,0000.0,0008.37,0003.79,0003.40
2024-03-27 14:38:00,SystemResetWarning,0826.7,5.00,000.00,018.4,017.9,000.0,026.9,020.1,16.7,0000.0,0008.43,0003.79,0003.37
2024-03-27 14:39:00,SystemResetWarning,0826.8,5.00,000.00,018.4,017.9,000.0,026.9,020.1,16.8,0000.0,0008.40,0003.76,0003.33
2024-03-27 14:40:00,SystemResetWarning,0826.8,5.01,000.00,018.4,017.9,000.0,026.9,020.1,16.7,0000.0,0008.35,0003.70,0003.27
2024-03-27 14:41:00,SystemResetWarning,0826.8,5.01,000.00,018.4,017.9,000.0,026.9,020.1,16.3,0000.0,0008.21,0003.62,0003.22
2024-03-27 14:42:00,SystemResetWarning,0826.8,5.00,000.00,018.4,017.9,000.0,026.9,020.1,16.3,0000.0,0008.57,0003.55,0003.16
2024-03-27 14:43:00,SystemResetWarning,0826.8,5.00,000.00,018.4,017.9,000.0,026.9,020.2,16.8,0000.0,0008.78,0003.51,0003.09
2024-03-27 14:44:00,SystemResetWarning,0826.8,4.99,000.00,018.4,017.9,000.0,026.9,020.2,16.8,0000.0,0008.53,0003.49,0003.02
2024-03-27 14:45:00,SystemResetWarning,0826.7,4.99,000.00,018.4,017.9,000.0,026.9,020.2,16.9,0000.0,0007.87,0003.43,0002.94
2024-03-27 14:46:00,SystemResetWarning,0826.8,5.01,000.00,018.4,017.9,000.0,026.9,020.1,17.3,0000.0,0007.10,0003.37,0002.86
2024-03-27 14:47:00,SystemResetWarning,0826.9,5.00,000.00,018.4,017.9,000.0,026.9,020.1,17.2,0000.0,0006.48,0003.35,0002.81
2024-03-27 14:48:00,SystemResetWarning,0826.9,5.01,000.00,018.4,017.9,000.0,026.9,020.1,17.2,0000.0,0006.68,0003.32,0002.77
2024-03-27 14:49:00,SystemResetWarning,0826.9,5.00,000.00,018.4,017.9,000.0,026.9,020.1,17.7,0000.0,0006.55,0003.29,0002.75
2024-03-27 14:50:00,SystemResetWarning,0826.9,5.00,000.00,018.4,017.9,000.0,026.9,020.1,17.3,0000.0,0006.59,0003.30,0002.77
2024-03-27 14:51:00,SystemResetWarning,0827.0,5.00,000.00,018.4,017.9,000.0,026.9,020.2,16.4,0000.0,0007.42,0003.36,0002.81
2024-03-27 14:52:00,SystemResetWarning,0827.0,5.00,000.00,018.4,017.9,000.0,026.9,020.2,16.2,0000.0,0007.72,0003.39,0002.86
2024-03-27 14:53:00,SystemResetWarning,0826.9,5.00,000.00,018.4,017.9,000.0,026.9,020.2,16.5,0000.0,0007.51,0003.44,0002.91
2024-03-27 14:54:00,SystemResetWarning,0827.0,4.99,000.00,018.4,017.9,000.0,026.9,020.2,16.6,0000.0,0007.46,0003.47,0002.96
2024-03-27 14:55:00,SystemResetWarning,0827.0,4.99,000.00,018.4,017.9,000.0,026.9,020.2,16.7,0000.0,0007.43,0003.50,0003.00
2024-03-27 14:56:00,SystemResetWarning,0827.0,5.00,000.00,018.4,017.9,000.0,026.9,020.2,17.1,0000.0,0007.77,0003.57,0003.04
2024-03-27 14:57:00,SystemResetWarning,0827.0,5.01,000.00,018.4,018.0,000.0,026.9,020.2,17.0,0000.0,0007.82,0003.61,0003.08
2024-03-27 14:58:00,SystemResetWarning,0827.0,5.01,000.00,018.4,018.0,000.0,026.9,020.2,17.0,0000.0,0007.78,0003.61,0003.09
2024-03-27 14:59:00,SystemResetWarning,0827.0,5.00,000.00,018.4,018.0,000.0,026.9,020.2,17.3,0000.0,0007.68,0003.62,0003.10
